• In Latvia
  • List of Countries
  • For 7 days
  • Water Temperature
  • Satellite Maps
  • Weather Map
  • Weather Widgets
  • user-avatar
    Login

    Hourly Weather San Luis

    Today, 25 February, Saturday

    Time Temperature Precipitation Wind Pressure Humidity
    00:00 +29°C° 0.3 mm 4 mps 697 mmHg 45%
    01:00 +28°C° 0.3 mm 4 mps 697 mmHg 46%
    02:00 +28°C° 0 mm 4 mps 697 mmHg 50%
    03:00 +27°C° 0.3 mm 4 mps 697 mmHg 52%
    04:00 +27°C° 0.3 mm 4 mps 697 mmHg 55%
    05:00 +26°C° 0.3 mm 3 mps 697 mmHg 57%
    06:00 +27°C° 0.3 mm 4 mps 698 mmHg 55%
    07:00 +28°C° 0.3 mm 4 mps 698 mmHg 53%
    08:00 +28°C° 0.3 mm 5 mps 698 mmHg 50%
    09:00 +30°C° 0.2 mm 4 mps 699 mmHg 45%
    10:00 +33°C° 0.2 mm 4 mps 699 mmHg 40%
    11:00 +34°C° 0.2 mm 3 mps 699 mmHg 35%
    12:00 +35°C° 0.2 mm 3 mps 699 mmHg 33%
    13:00 +36°C° 0.2 mm 3 mps 698 mmHg 32%
    14:00 +36°C° 0.2 mm 3 mps 698 mmHg 30%
    15:00 +36°C° 0.3 mm 3 mps 697 mmHg 30%
    16:00 +36°C° 0.3 mm 3 mps 697 mmHg 30%
    17:00 +36°C° 0.3 mm 4 mps 696 mmHg 30%
    18:00 +34°C° 0.1 mm 3 mps 696 mmHg 34%
    19:00 +31°C° 0.1 mm 3 mps 696 mmHg 38%
    20:00 +30°C° 0.1 mm 3 mps 696 mmHg 41%
    21:00 +29°C° 0.2 mm 3 mps 696 mmHg 44%
    22:00 +28°C° 0.2 mm 3 mps 696 mmHg 46%
    23:00 +28°C° 0.2 mm 3 mps 696 mmHg 48%

    Tomorrow, 26 February, Sunday

    Time Temperature Precipitation Wind Pressure Humidity
    00:00 +27°C° 0.5 mm 3 mps 696 mmHg 50%
    01:00 +27°C° 0.5 mm 4 mps 696 mmHg 53%
    02:00 +26°C° 0.5 mm 4 mps 696 mmHg 56%
    03:00 +26°C° 0.7 mm 4 mps 696 mmHg 59%
    04:00 +25°C° 0.7 mm 4 mps 696 mmHg 62%
    05:00 +25°C° 0.7 mm 4 mps 696 mmHg 65%
    06:00 +26°C° 0.2 mm 4 mps 696 mmHg 62%
    07:00 +27°C° 0.2 mm 5 mps 696 mmHg 60%
    08:00 +28°C° 0.2 mm 5 mps 697 mmHg 57%
    09:00 +29°C° 0.2 mm 6 mps 697 mmHg 50%
    10:00 +32°C° 0.2 mm 6 mps 697 mmHg 44%
    11:00 +34°C° 0.2 mm 7 mps 697 mmHg 38%
    12:00 +35°C° 0.3 mm 6 mps 697 mmHg 35%
    13:00 +35°C° 0.3 mm 6 mps 696 mmHg 33%
    14:00 +36°C° 0.3 mm 5 mps 696 mmHg 31%
    15:00 +36°C° 0.2 mm 5 mps 695 mmHg 31%
    16:00 +36°C° 0.2 mm 5 mps 695 mmHg 31%
    17:00 +36°C° 0.2 mm 5 mps 694 mmHg 31%
    18:00 +34°C° 0.1 mm 4 mps 694 mmHg 35%
    19:00 +32°C° 0.1 mm 4 mps 694 mmHg 39%
    20:00 +29°C° 0.1 mm 3 mps 694 mmHg 43%
    21:00 +28°C° 0.8 mm 3 mps 695 mmHg 47%
    22:00 +28°C° 0.8 mm 3 mps 695 mmHg 51%
    23:00 +27°C° 0.8 mm 4 mps 696 mmHg 55%

    Day after tomorrow, 27 February, Monday

    Time Temperature Precipitation Wind Pressure Humidity
    00:00 +26°C° 0.7 mm 4 mps 696 mmHg 56%
    01:00 +26°C° 0.7 mm 4 mps 696 mmHg 57%
    02:00 +26°C° 0.7 mm 4 mps 695 mmHg 58%
    03:00 +25°C° 0.4 mm 4 mps 695 mmHg 60%
    04:00 +25°C° 0.4 mm 4 mps 695 mmHg 61%
    05:00 +25°C° 0.4 mm 4 mps 695 mmHg 63%
    06:00 +26°C° 0.2 mm 5 mps 696 mmHg 60%
    07:00 +27°C° 0.2 mm 5 mps 696 mmHg 57%
    08:00 +28°C° 0.2 mm 6 mps 697 mmHg 54%
    09:00 +29°C° 0.4 mm 5 mps 697 mmHg 49%
    10:00 +32°C° 0.4 mm 5 mps 697 mmHg 45%
    11:00 +33°C° 0.4 mm 4 mps 698 mmHg 40%
    12:00 +34°C° 0.9 mm 3 mps 697 mmHg 38%
    13:00 +34°C° 0.9 mm 2 mps 697 mmHg 37%
    14:00 +34°C° 0.9 mm 1 mps 696 mmHg 35%
    15:00 +34°C° 0.3 mm 1 mps 696 mmHg 35%
    16:00 +34°C° 0.3 mm 1 mps 696 mmHg 36%
    17:00 +33°C° 0.3 mm 1 mps 695 mmHg 36%
    18:00 +32°C° 0.4 mm 2 mps 695 mmHg 41%
    19:00 +30°C° 0.4 mm 2 mps 695 mmHg 46%
    20:00 +28°C° 0.4 mm 2 mps 695 mmHg 50%
    21:00 +28°C° 0.4 mm 2 mps 696 mmHg 53%
    22:00 +27°C° 0.4 mm 2 mps 696 mmHg 57%
    23:00 +26°C° 0.4 mm 2 mps 696 mmHg 60%

    28 February, Tuesday

    Time Temperature Precipitation Wind Pressure Humidity
    00:00 +26°C° 0.1 mm 2 mps 696 mmHg 60%
    01:00 +25°C° 0.1 mm 2 mps 696 mmHg 60%
    02:00 +25°C° 0.1 mm 2 mps 695 mmHg 60%
    03:00 +25°C° 0 mm 2 mps 695 mmHg 60%
    04:00 +25°C° 0 mm 2 mps 695 mmHg 61%
    05:00 +25°C° 0 mm 2 mps 695 mmHg 62%
    06:00 +26°C° 0 mm 2 mps 695 mmHg 59%
    07:00 +27°C° 0 mm 2 mps 696 mmHg 57%
    08:00 +28°C° 0 mm 2 mps 696 mmHg 54%
    09:00 +29°C° 0 mm 2 mps 696 mmHg 49%
    10:00 +31°C° 0 mm 2 mps 696 mmHg 43%
    11:00 +32°C° 0 mm 2 mps 696 mmHg 38%
    12:00 +34°C° 0 mm 2 mps 695 mmHg 35%
    13:00 +35°C° 0 mm 2 mps 695 mmHg 32%
    14:00 +36°C° 0 mm 2 mps 694 mmHg 28%
    15:00 +36°C° 0.1 mm 2 mps 693 mmHg 28%
    16:00 +36°C° 0.1 mm 2 mps 693 mmHg 28%
    17:00 +36°C° 0.1 mm 2 mps 692 mmHg 27%
    18:00 +34°C° 0 mm 2 mps 692 mmHg 32%
    19:00 +31°C° 0 mm 2 mps 692 mmHg 37%
    20:00 +29°C° 0 mm 3 mps 692 mmHg 41%
    21:00 +29°C° 0.1 mm 3 mps 692 mmHg 44%
    22:00 +28°C° 0.1 mm 3 mps 693 mmHg 46%
    23:00 +28°C° 0.1 mm 3 mps 693 mmHg 48%

    1 March, Wednesday

    Time Temperature Precipitation Wind Pressure Humidity
    00:00 +28°C° 0 mm 4 mps 693 mmHg 50%
    01:00 +27°C° 0 mm 4 mps 692 mmHg 51%
    02:00 +27°C° 0 mm 5 mps 692 mmHg 52%
    03:00 +27°C° 0.1 mm 4 mps 692 mmHg 55%
    04:00 +26°C° 0.1 mm 4 mps 692 mmHg 59%
    05:00 +26°C° 0.1 mm 4 mps 692 mmHg 62%
    06:00 +27°C° 0 mm 4 mps 693 mmHg 60%
    07:00 +27°C° 0 mm 3 mps 693 mmHg 58%
    08:00 +28°C° 0 mm 3 mps 694 mmHg 56%
    09:00 +30°C° 0.1 mm 3 mps 694 mmHg 50%
    10:00 +31°C° 0.1 mm 3 mps 694 mmHg 45%
    11:00 +34°C° 0.1 mm 3 mps 694 mmHg 39%
    12:00 +35°C° 0 mm 3 mps 693 mmHg 37%
    13:00 +36°C° 0 mm 3 mps 693 mmHg 34%
    14:00 +36°C° 0 mm 3 mps 692 mmHg 32%
    15:00 +36°C° 0.1 mm 3 mps 692 mmHg 32%
    16:00 +36°C° 0.1 mm 3 mps 691 mmHg 31%
    17:00 +36°C° 0.1 mm 2 mps 691 mmHg 31%
    18:00 +35°C° 0.2 mm 2 mps 691 mmHg 35%
    19:00 +33°C° 0.2 mm 3 mps 691 mmHg 39%
    20:00 +30°C° 0.2 mm 3 mps 691 mmHg 43%
    21:00 +29°C° 0.1 mm 3 mps 691 mmHg 45%
    22:00 +29°C° 0.1 mm 3 mps 691 mmHg 47%
    23:00 +28°C° 0.1 mm 3 mps 691 mmHg 49%

    2 March, Thursday

    Time Temperature Precipitation Wind Pressure Humidity
    00:00 +28°C° 0.1 mm 4 mps 691 mmHg 51%
    01:00 +27°C° 0.1 mm 4 mps 691 mmHg 54%
    02:00 +26°C° 0.1 mm 4 mps 691 mmHg 56%
    03:00 +26°C° 0.1 mm 5 mps 692 mmHg 60%
    04:00 +25°C° 0.1 mm 5 mps 692 mmHg 64%
    05:00 +23°C° 0.1 mm 6 mps 692 mmHg 68%
    06:00 +23°C° 0.2 mm 5 mps 692 mmHg 69%
    07:00 +25°C° 0.2 mm 5 mps 693 mmHg 69%
    08:00 +25°C° 0.2 mm 5 mps 694 mmHg 69%
    09:00 +26°C° 0.9 mm 6 mps 694 mmHg 66%
    10:00 +27°C° 0.9 mm 6 mps 694 mmHg 63%
    11:00 +28°C° 0.9 mm 6 mps 695 mmHg 59%
    12:00 +28°C° 0.9 mm 6 mps 695 mmHg 59%
    13:00 +28°C° 0.9 mm 6 mps 694 mmHg 58%
    14:00 +28°C° 0.9 mm 7 mps 694 mmHg 57%
    15:00 +27°C° 0.5 mm 7 mps 694 mmHg 58%
    16:00 +27°C° 0.5 mm 8 mps 694 mmHg 58%
    17:00 +26°C° 0.5 mm 9 mps 694 mmHg 58%
    18:00 +23°C° 0.6 mm 8 mps 694 mmHg 63%
    19:00 +21°C° 0.6 mm 8 mps 695 mmHg 68%
    20:00 +18°C° 0.6 mm 7 mps 695 mmHg 74%
    21:00 +17°C° 1 mm 6 mps 695 mmHg 77%
    22:00 +17°C° 1 mm 6 mps 696 mmHg 80%
    23:00 +17°C° 1 mm 5 mps 696 mmHg 83%
    Show more